CW7104 Weather Reports


Display with metric or nautical units.
time (UTC)temp
F
wind
direction
speed
MPH
gust
MPH
rain 1hr
in
rain 24hr
in
rain mn
in
humidity
%
barometer
mb
20260510224405 72 345 0.0 0.0 0.00 0.00 0.00 36 1017.5
20260510223904 73 340 0.0 0.0 0.00 0.00 0.00 37 1017.6
20260510223404 73 331 0.0 0.0 0.00 0.00 0.00 37 1017.6
20260510222905 72 331 0.0 0.0 0.00 0.00 0.00 38 1017.7
20260510222405 72 283 0.0 0.0 0.00 0.00 0.00 38 1017.6
20260510221904 72 320 0.0 0.0 0.00 0.00 0.00 39 1017.6
20260510221404 72 355 0.0 0.0 0.00 0.00 0.00 39 1017.6
20260510220905 71 355 0.0 0.0 0.00 0.00 0.00 40 1017.6
20260510220404 71 304 0.0 0.0 0.00 0.00 0.00 39 1017.7
20260510215904 71 304 0.0 0.0 0.00 0.00 0.00 37 1017.6
20260510215405 71 305 0.0 0.0 0.00 0.00 0.00 37 1017.6
20260510214904 71 302 0.0 0.0 0.00 0.00 0.00 37 1017.6
20260510214404 71 320 0.0 0.0 0.00 0.00 0.00 37 1017.6
20260510213905 71 320 0.0 0.0 0.00 0.00 0.00 37 1017.7
20260510213404 71 308 0.0 0.0 0.00 0.00 0.00 37 1017.7
20260510211904 72 325 0.0 0.0 0.00 0.00 0.00 35 1017.4
20260510211404 72 329 0.0 0.0 0.00 0.00 0.00 37 1017.4
20260510205905 73 295 0.0 1.0 0.00 0.00 0.00 37 1017.4
20260510205405 73 340 0.0 1.0 0.00 0.00 0.00 36 1017.3
20260510204904 74 266 0.0 1.0 0.00 0.00 0.00 38 1017.3
20260510203904 74 349 0.0 1.0 0.00 0.00 0.00 37 1017.2
20260510203404 75 330 0.0 1.0 0.00 0.00 0.00 35 1017.2
20260510201904 76 322 0.0 1.0 0.00 0.00 0.00 34 1017.4
20260510201404 76 0 0.0 0.0 0.00 0.00 0.00 35 1017.4
20260510200905 76 22 0.0 1.0 0.00 0.00 0.00 37 1017.4
20260510200405 76 345 0.0 0.0 0.00 0.00 0.00 35 1017.4
20260510195904 76 307 0.0 1.0 0.00 0.00 0.00 34 1017.4
20260510195404 76 31 0.0 1.0 0.00 0.00 0.00 34 1017.3
20260510194904 76 355 0.0 2.0 0.00 0.00 0.00 36 1017.3
20260510194404 76 0 0.0 1.0 0.00 0.00 0.00 37 1017.3
20260510193904 76 331 0.0 1.0 0.00 0.00 0.00 34 1017.3
20260510192904 76 8 3.0 8.0 0.00 0.00 0.00 36 1017.2
20260510192404 76 15 0.0 0.0 0.00 0.00 0.00 37 1017.2
20260510191906 75 10 0.0 1.0 0.00 0.00 0.00 40 1017.3
20260510190905 75 310 0.0 1.0 0.00 0.00 0.00 38 1017.3
20260510190404 75 8 2.0 12.0 0.00 0.00 0.00 41 1017.2
20260510185904 74 25 0.0 2.0 0.00 0.00 0.00 40 1017.2
20260510185404 74 345 0.0 1.0 0.00 0.00 0.00 41 1017.3
20260510184404 74 335 0.0 1.0 0.00 0.00 0.00 40 1017.3
20260510183904 74 4 0.0 1.0 0.00 0.00 0.00 41 1017.3
20260510183404 74 346 0.0 5.0 0.00 0.00 0.00 39 1017.3
20260510182904 74 20 1.0 9.0 0.00 0.00 0.00 40 1017.2
20260510181905 74 17 0.0 0.0 0.00 0.00 0.00 38 1017.2
20260510181404 74 347 0.0 0.0 0.00 0.00 0.00 40 1017.2
20260510180404 74 340 0.0 0.0 0.00 0.00 0.00 38 1017.3
20260510175905 73 9 0.0 0.0 0.00 0.00 0.00 40 1017.3
20260510175404 74 348 0.0 0.0 0.00 0.00 0.00 38 1017.2
20260510174904 74 316 0.0 0.0 0.00 0.00 0.00 39 1017.2
20260510173405 72 9 0.0 0.0 0.00 0.00 0.00 45 1017.6
20260510172904 72 319 0.0 0.0 0.00 0.00 0.00 40 1017.6
20260510172405 72 352 0.0 0.0 0.00 0.00 0.00 42 1017.5
20260510171904 72 358 0.0 0.0 0.00 0.00 0.00 41 1017.6
20260510171404 72 10 0.0 0.0 0.00 0.00 0.00 43 1017.6
20260510170904 72 9 0.0 0.0 0.00 0.00 0.00 42 1017.8
20260510170404 72 12 0.0 0.0 0.00 0.00 0.00 43 1017.8
20260510165904 71 345 0.0 0.0 0.00 0.00 0.00 42 1017.9
20260510165404 71 350 0.0 0.0 0.00 0.00 0.00 43 1017.9
20260510164904 71 357 0.0 0.0 0.00 0.00 0.00 45 1017.9
20260510164404 71 6 0.0 0.0 0.00 0.00 0.00 45 1017.7
20260510163904 72 320 0.0 0.0 0.00 0.00 0.00 45 1017.6
20260510163404 71 12 0.0 0.0 0.00 0.00 0.00 47 1017.5
20260510162905 71 42 0.0 0.0 0.00 0.00 0.00 48 1017.5
20260510162404 71 9 0.0 0.0 0.00 0.00 0.00 48 1017.5
20260510161904 71 306 0.0 0.0 0.00 0.00 0.00 48 1017.5
20260510161404 70 354 0.0 0.0 0.00 0.00 0.00 49 1017.4
20260510160904 70 31 0.0 0.0 0.00 0.00 0.00 51 1017.4
20260510160404 69 20 0.0 0.0 0.00 0.00 0.00 51 1017.4
20260510155904 69 7 0.0 0.0 0.00 0.00 0.00 52 1017.3
20260510155403 68 8 0.0 0.0 0.00 0.00 0.00 52 1017.3
20260510154904 68 9 0.0 0.0 0.00 0.00 0.00 55 1017.1
20260510154404 68 7 0.0 0.0 0.00 0.00 0.00 56 1017.2
20260510153904 68 5 0.0 0.0 0.00 0.00 0.00 54 1017.2
20260510153405 68 10 0.0 0.0 0.00 0.00 0.00 53 1017.0
20260510152904 69 0 0.0 0.0 0.00 0.00 0.00 53 1017.1
20260510152404 69 43 0.0 0.0 0.00 0.00 0.00 53 1016.9
20260510151904 70 44 0.0 0.0 0.00 0.00 0.00 53 1016.8
20260510151406 70 37 0.0 0.0 0.00 0.00 0.00 51 1016.7
20260510150404 71 25 0.0 0.0 0.00 0.00 0.00 54 1016.5
20260510145904 71 29 0.0 0.0 0.00 0.00 0.00 54 1016.4
20260510145404 70 54 0.0 0.0 0.00 0.00 0.00 54 1016.4
20260510144904 70 43 0.0 0.0 0.00 0.00 0.00 55 1016.3
20260510144403 69 23 0.0 0.0 0.00 0.00 0.00 55 1016.1
20260510143904 69 7 0.0 0.0 0.00 0.00 0.00 55 1016.2
20260510143404 68 4 0.0 0.0 0.00 0.00 0.00 58 1016.0
20260510142404 67 18 0.0 0.0 0.00 0.00 0.00 58 1015.9
20260510141904 67 21 0.0 0.0 0.00 0.00 0.00 58 1016.1
20260510141404 67 8 0.0 0.0 0.00 0.00 0.00 60 1016.1
20260510140403 66 331 0.0 0.0 0.00 0.00 0.00 62 1016.3
20260510135904 66 330 0.0 0.0 0.00 0.00 0.00 62 1016.2
20260510134903 66 354 0.0 0.0 0.00 0.00 0.00 62 1016.1
20260510134404 65 351 0.0 0.0 0.00 0.00 0.00 64 1016.0
20260510133904 65 10 0.0 0.0 0.00 0.00 0.00 66 1015.8
20260510133404 65 6 0.0 0.0 0.00 0.00 0.00 66 1015.8
20260510132904 65 0 0.0 0.0 0.00 0.00 0.00 68 1015.9
20260510132404 64 13 0.0 0.0 0.00 0.00 0.00 69 1015.9
20260510131904 64 20 0.0 0.0 0.00 0.00 0.00 70 1015.9
20260510131404 64 26 0.0 0.0 0.00 0.00 0.00 72 1015.8
20260510130403 63 23 0.0 0.0 0.00 0.00 0.00 73 1015.6
20260510125904 63 24 0.0 0.0 0.00 0.00 0.00 73 1015.6
20260510125404 62 21 0.0 0.0 0.00 0.00 0.00 73 1015.6
20260510124403 62 335 0.0 0.0 0.00 0.00 0.00 73 1015.6
20260510123404 62 0 0.0 0.0 0.00 0.00 0.00 75 1015.5
20260510122904 62 306 0.0 0.0 0.00 0.00 0.00 75 1015.4
20260510122403 62 296 0.0 0.0 0.00 0.00 0.00 75 1015.4
20260510121904 62 277 0.0 0.0 0.00 0.00 0.00 75 1015.4
20260510121404 62 343 0.0 0.0 0.00 0.00 0.00 76 1015.3
20260510120903 62 301 0.0 0.0 0.00 0.00 0.00 76 1015.2
20260510120404 62 278 0.0 0.0 0.00 0.00 0.00 76 1015.1
20260510115903 61 330 0.0 0.0 0.00 0.00 0.00 77 1014.9
20260510115403 61 289 0.0 0.0 0.00 0.00 0.00 78 1014.5
20260510114404 59 273 0.0 0.0 0.00 0.00 0.00 80 1014.3
20260510113404 58 271 0.0 0.0 0.00 0.00 0.00 80 1014.1
20260510112903 57 271 0.0 0.0 0.00 0.00 0.00 79 1014.2
20260510111903 57 271 0.0 0.0 0.00 0.00 0.00 78 1014.0
20260510111404 57 271 0.0 0.0 0.00 0.00 0.00 77 1013.9
20260510110903 57 271 0.0 0.0 0.00 0.00 0.00 77 1013.7
20260510110404 57 271 0.0 0.0 0.00 0.00 0.00 78 1013.6
20260510105904 58 271 0.0 0.0 0.00 0.00 0.00 77 1013.5
20260510104904 58 271 0.0 0.0 0.00 0.00 0.00 77 1013.4
20260510104403 58 271 0.0 0.0 0.00 0.00 0.00 76 1013.3
20260510103904 58 271 0.0 0.0 0.00 0.00 0.00 76 1013.1
20260510103403 58 271 0.0 0.0 0.00 0.00 0.00 75 1013.1
20260510102904 59 271 0.0 0.0 0.00 0.00 0.00 75 1013.1
20260510102404 59 271 0.0 0.0 0.00 0.00 0.00 75 1012.9
20260510101903 59 271 0.0 0.0 0.00 0.00 0.00 75 1012.8
20260510101404 60 271 0.0 0.0 0.00 0.00 0.00 74 1012.8
20260510100903 60 271 0.0 0.0 0.00 0.00 0.00 74 1012.7
20260510100406 60 271 0.0 0.0 0.00 0.00 0.00 74 1012.6
20260510095905 60 271 0.0 0.0 0.00 0.00 0.00 73 1012.6
20260510095406 60 271 0.0 0.0 0.00 0.00 0.00 73 1012.5
20260510094905 61 271 0.0 0.0 0.00 0.00 0.00 72 1012.4
20260510094405 61 271 0.0 0.0 0.00 0.00 0.00 72 1012.3
20260510093405 61 271 0.0 0.0 0.00 0.00 0.00 71 1012.2
20260510092905 62 271 0.0 0.0 0.00 0.00 0.00 70 1012.2
20260510092405 62 271 0.0 0.0 0.00 0.00 0.00 70 1012.1
20260510091905 62 271 0.0 0.0 0.00 0.00 0.00 70 1012.1
20260510091405 62 271 0.0 0.0 0.00 0.00 0.00 70 1012.1
20260510090405 63 271 0.0 0.0 0.00 0.00 0.00 69 1012.3
20260510085905 63 271 0.0 0.0 0.00 0.00 0.00 68 1012.5
20260510084905 63 278 0.0 0.0 0.00 0.00 0.00 68 1012.4
20260510084406 63 267 0.0 0.0 0.00 0.00 0.00 68 1012.6
20260510083905 63 267 0.0 0.0 0.00 0.00 0.00 67 1012.7
20260510083406 63 267 0.0 0.0 0.00 0.00 0.00 67 1012.5
20260510082905 63 267 0.0 0.0 0.00 0.00 0.00 66 1012.6
20260510081905 63 287 0.0 0.0 0.00 0.00 0.00 65 1012.6
20260510080905 63 274 0.0 0.0 0.00 0.00 0.00 63 1012.4
20260510080405 63 317 0.0 0.0 0.00 0.00 0.00 63 1012.4
20260510075905 63 330 0.0 0.0 0.00 0.00 0.00 62 1012.4
20260510075405 63 258 0.0 0.0 0.00 0.00 0.00 62 1012.3
20260510074905 63 299 0.0 0.0 0.00 0.00 0.00 62 1012.2
20260510074406 63 307 0.0 0.0 0.00 0.00 0.00 62 1012.2
20260510073905 63 238 0.0 0.0 0.00 0.00 0.00 62 1012.3
20260510072905 63 357 0.0 0.0 0.00 0.00 0.00 62 1012.2
20260510071905 62 347 0.0 0.0 0.00 0.00 0.00 63 1012.4
20260510071405 61 332 0.0 0.0 0.00 0.00 0.00 66 1012.2
20260510070406 60 207 0.0 0.0 0.00 0.00 0.00 70 1011.4
20260510065905 60 207 0.0 0.0 0.00 0.00 0.00 70 1011.3
20260510065405 60 213 0.0 0.0 0.00 0.00 0.00 70 1011.2
20260510064905 60 213 0.0 0.0 0.00 0.00 0.00 70 1011.3
20260510063405 60 213 0.0 0.0 0.00 0.00 0.00 72 1011.1
20260510062905 60 213 0.0 0.0 0.00 0.00 0.00 72 1011.0
20260510062405 59 213 0.0 0.0 0.00 0.00 0.00 73 1011.0
20260510061905 59 213 0.0 0.0 0.00 0.00 0.00 74 1011.0
20260510061405 59 214 0.0 0.0 0.00 0.00 0.00 75 1011.1
20260510060905 59 214 0.0 0.0 0.00 0.00 0.00 75 1011.2
20260510055906 59 214 0.0 0.0 0.00 0.00 0.00 75 1011.1
20260510055405 59 214 0.0 0.0 0.00 0.00 0.00 75 1011.2
20260510054905 59 214 0.0 0.0 0.00 0.00 0.00 75 1011.1
20260510054405 60 214 0.0 0.0 0.00 0.00 0.00 75 1011.1
20260510053905 60 214 0.0 0.0 0.00 0.00 0.00 74 1011.2
20260510052905 60 214 0.0 0.0 0.00 0.00 0.00 74 1010.9
20260510052405 60 214 0.0 0.0 0.00 0.00 0.00 74 1010.9
20260510051905 60 214 0.0 0.0 0.00 0.00 0.00 74 1010.9
20260510051405 60 214 0.0 0.0 0.00 0.00 0.00 74 1010.9
20260510050905 60 214 0.0 0.0 0.00 0.00 0.00 73 1010.9
20260510050405 60 214 0.0 0.0 0.00 0.00 0.00 73 1010.9
20260510045905 60 214 0.0 0.0 0.00 0.00 0.00 72 1010.8
20260510045405 60 214 0.0 0.0 0.00 0.00 0.00 72 1010.8
20260510044905 61 214 0.0 0.0 0.00 0.00 0.00 72 1010.9
20260510044405 61 214 0.0 0.0 0.00 0.00 0.00 72 1011.2
20260510043404 61 214 0.0 0.0 0.00 0.00 0.00 71 1011.2
20260510042405 62 214 0.0 0.0 0.00 0.00 0.00 70 1011.2
20260510041904 62 214 0.0 0.0 0.00 0.00 0.00 70 1011.2
20260510040405 62 214 0.0 0.0 0.00 0.00 0.00 69 1011.2
20260510035904 62 214 0.0 0.0 0.00 0.00 0.00 69 1011.2
20260510035405 63 214 0.0 0.0 0.00 0.00 0.00 68 1011.2
20260510034905 63 214 0.0 0.0 0.00 0.00 0.00 68 1011.1
20260510034405 63 214 0.0 0.0 0.00 0.00 0.00 67 1011.0
20260510033904 63 214 0.0 0.0 0.00 0.00 0.00 67 1011.1
20260510033405 64 214 0.0 0.0 0.00 0.00 0.00 66 1011.0
20260510032405 64 214 0.0 0.0 0.00 0.00 0.00 66 1011.0
20260510031905 64 214 0.0 0.0 0.00 0.00 0.00 66 1011.1
20260510031405 65 214 0.0 0.0 0.00 0.00 0.00 65 1011.1
20260510030405 65 214 0.0 0.0 0.00 0.00 0.00 64 1011.1
20260510025905 65 214 0.0 0.0 0.00 0.00 0.00 64 1011.0
20260510025405 65 214 0.0 0.0 0.00 0.00 0.00 63 1011.0
20260510024905 66 214 0.0 0.0 0.00 0.00 0.00 63 1010.9
20260510023405 66 222 0.0 0.0 0.00 0.00 0.00 62 1010.8
20260510022405 67 222 0.0 0.0 0.00 0.00 0.00 61 1010.8
20260510021904 67 222 0.0 0.0 0.00 0.00 0.00 60 1010.7
20260510021405 67 222 0.0 0.0 0.00 0.00 0.00 60 1010.7
20260510020904 67 222 0.0 0.0 0.00 0.00 0.00 59 1010.6
20260510020405 68 222 0.0 0.0 0.00 0.00 0.00 59 1010.6
20260510015905 68 222 0.0 0.0 0.00 0.00 0.00 59 1010.5
20260510015405 68 222 0.0 0.0 0.00 0.00 0.00 58 1010.4
20260510014905 69 222 0.0 0.0 0.00 0.00 0.00 57 1010.3
20260510014405 69 222 0.0 0.0 0.00 0.00 0.00 56 1010.3
20260510013905 69 222 0.0 0.0 0.00 0.00 0.00 55 1010.2
20260510013405 70 223 0.0 0.0 0.00 0.00 0.00 54 1010.1
20260510012905 70 223 0.0 0.0 0.00 0.00 0.00 53 1010.0
20260510012405 70 223 0.0 0.0 0.00 0.00 0.00 53 1009.9
20260510011904 71 223 0.0 0.0 0.00 0.00 0.00 52 1009.8
20260510011405 71 223 0.0 0.0 0.00 0.00 0.00 51 1009.7
20260510010905 72 223 0.0 0.0 0.00 0.00 0.00 50 1009.8
20260510010405 72 223 0.0 0.0 0.00 0.00 0.00 49 1009.7
20260510005904 73 223 0.0 0.0 0.00 0.00 0.00 49 1009.7
20260510005405 73 223 0.0 0.0 0.00 0.00 0.00 47 1009.6
20260510004405 75 223 0.0 0.0 0.00 0.00 0.00 45 1009.4
20260510003405 76 223 0.0 0.0 0.00 0.00 0.00 44 1009.2
20260510002905 77 223 0.0 0.0 0.00 0.00 0.00 43 1009.1
20260510001904 78 223 0.0 0.0 0.00 0.00 0.00 41 1008.9
20260510001405 78 220 0.0 1.0 0.00 0.00 0.00 40 1009.0
20260510000904 79 235 0.0 0.0 0.00 0.00 0.00 40 1009.0
20260510000406 79 232 0.0 1.0 0.00 0.00 0.00 39 1009.0
20260509235405 79 264 0.0 1.0 0.00 0.00 0.00 39 1009.0
20260509234905 80 302 0.0 1.0 0.00 0.00 0.00 38 1009.0
20260509234404 80 246 0.0 0.0 0.00 0.00 0.00 38 1008.9
20260509233904 80 267 0.0 1.0 0.00 0.00 0.00 37 1009.0
20260509233405 80 258 0.0 9.0 0.00 0.00 0.00 36 1009.0
20260509232404 81 233 0.0 2.0 0.00 0.00 0.00 36 1009.0
20260509231404 81 252 0.0 1.0 0.00 0.00 0.00 37 1009.0
20260509230905 81 248 0.0 1.0 0.00 0.00 0.00 37 1008.9
20260509230405 81 323 0.0 6.0 0.00 0.00 0.00 35 1008.9
20260509225904 81 304 4.0 10.0 0.00 0.00 0.00 35 1008.9
20260509225404 81 291 0.0 12.0 0.00 0.00 0.00 35 1008.9
20260509224905 80 288 0.0 12.0 0.00 0.00 0.00 36 1008.8